Weather Roundup
Issued by NWS

Home | Current Version | Previous Version | Graphics & Text | Print | Product List | Glossary Off
Versions: 1 2 3 4 5 6 7 8 9 10 11 12 13 14 15 16 17 18 19 20 21 22 23 24 25 26 27 28 29 30 31 32 33 34 35 36 37 38 39 40 41 42 43 44 45 46 47 48 49 50

000
NZUS93 KARX 010259
HRRWXR

CURRENT HOURLY OBSERVATIONS ACROSS
MUCH OF THE UPPER MISSISSIPPI VALLEY
NATIONAL WEATHER SERVICE LA CROSSE WI
1000 PM CDT SUN AUG 31 2014


...SOUTHEAST MINNESOTA...


CITY           SKY/WX    TMP DP  RH WIND       PRES   REMARKS
ROCHESTER      CLOUDY    68  64  87 SE6       29.70F
ROCHESTER/MAYO MOCLDY    70  62  76 SE5       29.69F
WINONA         CLOUDY    70  64  83 SE6       29.70F
AUSTIN         TSTM      66  64  94 S25G32    29.67F
ALBERT LEA     TSTM      64  64 100 N5        29.68F
DODGE CENTER   LGT RAIN  68  64  88 W8        29.70S
PRESTON        LGT RAIN  70  70 100 CALM      29.72F
OWATONNA       TSTM      66  63  88 CALM      29.69F
FARIBAULT      RAIN      70  63  78 W5        29.71R
$$

...ELSEWHERE IN MINNESOTA...


CITY           SKY/WX    TMP DP  RH WIND       PRES   REMARKS
MINNEAPOLIS    TSTM      66  64  93 W15G24    29.71R FOG
INTNL FALLS    CLOUDY    64  62  93 VRB3      29.57F
DULUTH         CLOUDY    63  60  90 E9        29.61F
RED WING       LGT RAIN  73  63  68 SW3       29.70R
REDWOOD FALLS  LGT RAIN  68  67  96 E5        29.65R
MANKATO        CLOUDY    66  63  88 N10       29.67F
WORTHINGTON    CLOUDY    64  64 100 S8        29.70R
FAIRMONT       CLOUDY    64  61  88 N3        29.68R THUNDER
$$

...SOUTHWEST WISCONSIN...


CITY           SKY/WX    TMP DP  RH WIND       PRES   REMARKS
LA CROSSE      CLOUDY    70  66  87 SE6       29.71S
PRAIRIE DU CHI CLOUDY    78  67  68 SE7       29.74S
BOSCOBEL       MOCLDY    79  67  66 S10G17    29.75S
LONE ROCK      NOT AVBL
PLATTEVILLE    PTCLDY    73  69  87 CALM      29.81S
FORT MC COY    CLOUDY    72  64  76 SE5       29.74F
VIROQUA        FAIR      74  67  76 S8        29.77R
WIS DELLS      PTCLDY    75  65  72 S9        29.79R
$$

...ELSEWHERE IN WISCONSIN...


CITY           SKY/WX    TMP DP  RH WIND       PRES   REMARKS
MILWAUKEE      PTCLDY    75  66  73 S8        29.84F
MADISON        CLEAR     77  68  73 S13       29.81R
GREEN BAY      CLEAR     67  65  93 SE7       29.79F
EAU CLAIRE     CLOUDY    75  67  76 SW8       29.70R
BLACK RVR FLS  FAIR      67  67  99 CALM      29.73R
MEDFORD        CLOUDY    70  67  88 S12       29.75R
WAUSAU         CLOUDY    72  67  84 SE8       29.76R
WIS RAPIDS     CLOUDY    74  67  78 S7        29.77S
MARSHFIELD     CLOUDY    74  67  78 S8        29.76R
RICE LAKE      CLOUDY    67  65  92 S3        29.69S
$$

...NORTHEAST IOWA...


CITY           SKY/WX    TMP DP  RH WIND       PRES   REMARKS
WATERLOO       LGT RAIN  77  71  82 S13       29.75R
DUBUQUE        CLOUDY    74  69  85 S13       29.79S
DECORAH        CLOUDY    75  72  88 S8        29.74R
MASON CITY     TSTM      63  61  93 S15       29.77F
CHARLES CITY   CLOUDY    75  72  88 S9        29.74R
OELWEIN        CLOUDY    77  72  83 S12G17    29.76R
$$

...ELSEWHERE IN IOWA...


CITY           SKY/WX    TMP DP  RH WIND       PRES   REMARKS
DES MOINES     TSTM      70  66  87 NW33G51   29.76R SQUALL  VSB 3/4
IOWA CITY      CLOUDY    77  72  84 SE10      29.78F
FORT DODGE     CLOUDY    64  63  94 SE8       29.70F
MARSHALLTOWN   TSTM      66  63  90 NW30G47   29.85R FOG
CEDAR RAPIDS   CLOUDY    78  71  79 S14G20    29.76S
$$

...NORTHERN ILLINOIS...


CITY           SKY/WX    TMP DP  RH WIND       PRES   REMARKS
CHICAGO-OHARE  CLEAR     76  69  79 S8        29.85F
DUPAGE         CLEAR     72  69  90 S6        29.87R
CHICAGO-MIDWAY CLEAR     79  71  76 S8        29.85F
MOLINE         PTCLDY    75  68  78 S13       29.81R
ROCKFORD       PTCLDY    74  69  85 S14       29.85R
STERLING       CLEAR     73  70  88 S6        29.84S
PEORIA         CLEAR     78  69  73 S9        29.88R
$$

NOTE: "FAIR" INDICATES FEW OR NO CLOUDS BELOW 12,000 FEET WITH NO
SIGNIFICANT WEATHER AND/OR OBSTRUCTIONS TO VISIBILITY. WIND
SPEEDS ARE IN MILES-PER-HOUR.



USA.gov is the U.S. government's official web portal to all federal, state and local government web resources and services.